sat.trackr.live / text

‹ back to catalog

ONEWEB-0589

NORAD 54655 · 2022-166P

PAYLOAD ACTIVE UNKNOWN

§ Identity

Operator
Country
UK
Launch date
2022-12-08
Launch site
AFETR
Launch vehicle
Mass (kg)
RCS (m²)

Purposes: comms

External: N2YO · Heavens-Above · Gunter

§ Orbital elements

Epoch: 2026-09-20T04:41:59.227296Z

Period
108.94 min
Inclination
87.9281°
Eccentricity
0.0002748
Mean motion
13.21826424 rev/d
Perigee alt
1,175.7 km
Apogee alt
1,179.8 km
Semi-major
7,555.9 km
B*
-7.5395e-5
RAAN
225.0665°
Arg perigee
92.8977°
Mean anomaly
267.2471°
Rev number
18,409

§ Raw data

ONEWEB-05891 54655U 22166P   26263.19582439 -.00000018  00000+0 -75395-4 0  99952 54655  87.9281 225.0665 0002748  92.8977 267.2471 13.21826424184095

JSON: /api/v1/satellites/54655 · /tle

For live sub-satellite position, see the globe view (requires WebGL).

§ Visibility from observer

Set your observer location to see the next 7 days of passes ≥ 10°. The values pass through the URL so the page stays shareable.

No JS? Fill the form by hand. The geolocation button needs JavaScript.